Location: Unspecified
(43.4680°N, 87.1740°E)
Time: 05:15:10
(UTC+00:00)

Okean 2 - Pass Details

Date: 01 August 2021
Orbit: 558 x 577 km, 82.5° (Epoch: 27 September)

Event Time Altitude Azimuth Distance (km) Brightness Sun altitude
Rises 20:21:38 0° 343° (NNW) 2,802 7.5 -22.5°
Reaches altitude 10° 20:23:56 10° 336° (NNW) 1,898 6.5 -22.2°
Enters shadow 20:27:11 35° 290° (WNW) 933 4.3 -21.9°
